[Iaude] MPEC T115: 2014 FB62 [a=39.83,e=0.19,i=6.0,H=7.7]

mpec at si.edu mpec at si.edu
Tue Oct 11 17:02:04 EDT 2016


M.P.E.C. 2016-T115                               Issued 2016 Oct. 11, 20:58 UT
 
     The Minor Planet Electronic Circulars contain information on unusual
         minor planets and routine data on comets.  They are published
    on behalf of Division F of the International Astronomical Union by the
          Minor Planet Center, Smithsonian Astrophysical Observatory,
                          Cambridge, MA 02138, U.S.A.

             Prepared using the Tamkin Foundation Computer Network

                              MPC at CFA.HARVARD.EDU
            URL http://www.minorplanetcenter.net/    ISSN 1523-6714


                                   2014 FB62
 
Additional Observations:
     K14F62B  C2015 03 16.30019 12 49 09.09 -04 42 17.4          22.8 RoET115G37
     K14F62B  C2015 03 16.37248 12 49 08.70 -04 42 15.2                oET115G37
     K14F62B  C2016 03 13.25808 12 57 44.72 -05 21 27.9          22.8 RoET115G37
     K14F62B  C2016 03 13.30670 12 57 44.47 -05 21 26.0                oET115G37
 
Observer details:
G37 Lowell Observatory-Discovery Channel Telescope.  Observer L. H. Wasserman.
    4.3-m Discovery Channel Telescope + CCD.
 
Orbital elements:
2014 FB62
Epoch 2016 July 31.0 TT = JDT 2457600.5                 MPC
M  10.60491              (2000.0)            P               Q
n   0.00392163     Peri.  351.95270     -0.99988455     -0.00535889
a  39.8252332      Node   187.78273     +0.00938013     -0.95385192
e   0.1899590      Incl.    6.02712     -0.01195413     -0.30022956
P 251              H    7.7           G   0.15           U   4
Residuals in seconds of arc
140330 W84  0.2+  0.0     140330 W84  0.0   0.1-    140518 695  0.2-  0.2+
140330 W84  0.1+  0.0     140331 W84  0.1+  0.0     140518 695  0.2+  0.1-
140330 W84  0.0   0.0     140331 W84  0.2-  0.1+    140518 695  0.1-  0.1+
140330 W84  0.1-  0.1+    140331 W84  0.3-  0.3+    140521 695  0.0   0.2-
140330 W84  0.0   0.0     140331 W84  0.3+  0.0     140521 695  0.1+  0.3-
140330 W84  0.0   0.1+    140331 W84  0.3+  0.1-    140521 695  0.1+  0.3-
140330 W84  0.2+  0.1-    140331 W84  0.2+  0.0     140521 695  0.0   0.2-
140330 W84  0.1-  0.0     140407 W84  0.1-  0.1-    150316 G37  0.1+  0.3+
140330 W84  0.0   0.1+    140407 W84  0.1-  0.2-    150316 G37  0.0   0.1-
140330 W84  0.1+  0.0     140408 W84  0.2-  0.0     160313 G37  0.0   0.1-
140330 W84  0.0   0.0     140408 W84  0.1-  0.1-    160313 G37  0.0   0.1+

Ephemeris:
2014 FB62                a,e,i = 39.83, 0.19, 6                  q = 32.260
Date    TT    R. A. (2000) Decl.     Delta      r     Elong.  Phase     V
2016 09 11    12 56 18.4 -05 08 12  33.3598 32.4620    26.5     0.8    23.0
...
2016 09 26    12 58 10.4 -05 19 24  33.4427 32.4641    12.4     0.4    23.0
...
2016 10 04    12 59 12.6 -05 25 35  33.4620 32.4653     4.8     0.1    22.9
...
2016 10 10    12 59 59.8 -05 30 14  33.4645 32.4662     1.3     0.0    22.9
2016 10 11    13 00 07.6 -05 31 01  33.4639 32.4663     2.1     0.1    22.9
2016 10 12    13 00 15.5 -05 31 47  33.4631 32.4665     3.0     0.1    22.9
...
2016 10 18    13 01 02.5 -05 36 24  33.4520 32.4674     8.6     0.3    22.9
...
2016 10 26    13 02 04.2 -05 42 26  33.4214 32.4685    16.3     0.5    23.0
...
2016 11 10    13 03 54.4 -05 53 02  33.3171 32.4707    30.8     0.9    23.0

A. U. Tomatic                (C) Copyright 2016 MPC           M.P.E.C. 2016-T115




More information about the Iaude mailing list